Regional Weather Roundup
Issued by NWS

Home | Current Version | Previous Version | Graphics & Text | Print | Product List | Glossary On
Versions: 1 2 3 4 5 6 7 8 9 10 11 12 13 14 15 16 17 18 19 20 21 22 23 24 25 26 27 28 29 30 31 32 33 34 35 36 37 38 39 40 41 42 43 44 45 46 47 48 49 50
000
ASUS43 KIND 221409
RWRIN

WEATHER ROUNDUP FOR INDIANA
NATIONAL WEATHER SERVICE INDIANAPOLIS IN
1000 AM EDT SUN OCT 22 2017

NOTE: "FAIR" INDICATES FEW OR NO CLOUDS BELOW 12,000 FEET WITH NO
SIGNIFICANT WEATHER AND/OR OBSTRUCTIONS TO VISIBILITY.

* - STATION DOES NOT REPORT WEATHER SUCH AS PRECIPITATION OR FOG.

+ - STATION NOT QUALITY CONTROLLED BY THE NATIONAL WEATHER SERVICE.
    USE DATA WITH CAUTION...ESPECIALLY DEWPOINT AND RELATIVE
    HUMIDITY OBSERVATIONS.

INZ001>003-010>013-019-020-221500-
NORTHWEST INDIANA

CITY           SKY/WX    TMP DP  RH WIND       PRES   REMARKS
GARY /AIRPORT/ PTSUNNY   66  54  63 S13G26    29.98S
KNOX *+        SUNNY     64  54  68 S20       30.03S
LA PORTE +     SUNNY     65  54  69 S12G17    30.04S
MICHIGAN CITY+ SUNNY     64  54  68 S13G20    30.02S
MONTICELLO +   CLOUDY    63  54  73 S10G18    30.04F
RENSSELAER +   CLOUDY    64  50  59 S16G28    30.03S
VALPARAISO     MOSUNNY   66  56  70 S12       30.02S

$$

LMZ046-743>745-221500-
SOUTHERN LAKE MICHIGAN

STATION/POSITION TIME  TEMP    WIND        PRES    WAVE
                       AIR SEA DIR/SP/G            HT
                 (UTC) (F)     (DEG/KT/KT) (MB)    (FT)
BURNS HARBOR     1340   67     180/ 17/ 28 1015.6S
MICHIGAN CITY    1340   65     150/ 14/ 19   N/A
5NW MICH CITY    1400   64 58  180/ 17/ 25   N/A     2

$$

INZ004-005-014>016-021>024-221500-
NORTH CENTRAL INDIANA

CITY           SKY/WX    TMP DP  RH WIND       PRES   REMARKS
ELKHART        SUNNY     64  54  68 S8G17     30.06S
GOSHEN         MOSUNNY   64  51  62 S17       30.08F
LOGANSPORT +   CLOUDY    63  52  67 S14G24    30.08S
PERU/GRISSOM   CLOUDY    63  53  70 S16G23    30.08F
SOUTH BEND     SUNNY     63  54  72 S14       30.05F
WARSAW +       SUNNY     63  52  67 S6        30.09S

$$

INZ006>009-017-018-025>027-221500-
NORTHEAST INDIANA

CITY           SKY/WX    TMP DP  RH WIND       PRES   REMARKS
AUBURN +       SUNNY     61  50  67 CALM      30.14F
FORT WAYNE     PTSUNNY   66  52  60 S18G24    30.13S
HUNTINGTON +   SUNNY     64  51  64 S12       30.12S
KENDALLVILLE + SUNNY     62  51  66 S9        30.13S

$$

INZ028-029-035-036-043>045-051>053-221500-
WEST CENTRAL INDIANA

CITY           SKY/WX    TMP DP  RH WIND       PRES   REMARKS
CRAWFORDSVL +  CLOUDY    61  55  82 SE9       30.07
GREENCASTLE +  CLOUDY    63  54  72 S13       30.09S
LAFAYETTE      CLOUDY    63  55  75 S10       30.04S
TERRE HAUTE    CLOUDY    66  55  67 S13       30.07R

$$

INZ030>032-037>040-046>048-054>057-064-065-221500-
CENTRAL INDIANA

CITY           SKY/WX    TMP DP  RH WIND       PRES   REMARKS
CP ATTERBURY + MOSUNNY   63  52  67 S9        30.14S
COLUMBUS       SUNNY     63  46  55 S14       30.15R
FISHERS *+     MOSUNNY   64  55  72 S9        30.12S
FRANKFORT +    CLOUDY    65  55  70 S5        30.09S
GREENWOOD *+   MOSUNNY   64  53  67 S12       30.14R
INDIANAPOLIS   CLOUDY    63  53  70 S14       30.10F
-EAGLE CREEK   PTSUNNY   64  52  64 SE6G16    30.10F
KOKOMO +       CLOUDY    65  53  65 S17       30.11S
MARION +       CLOUDY    63  52  67 S14       30.13
MT COMFORT *+  MOSUNNY   64  55  72 S12G20    30.13S
SHELBYVILLE    LGT RAIN  66  50  56 S14G25    30.13S
ZIONSVILLE +   CLOUDY    63  52  69 S13G20    30.11S

$$

INZ033-034-041-042-049-050-058-059-221500-
EAST CENTRAL INDIANA

CITY           SKY/WX    TMP DP  RH WIND       PRES   REMARKS
MUNCIE         CLOUDY    66  51  58 S13G23    30.14S
RICHMOND +     SUNNY     61  48  63 S14       30.20S

$$

INZ060-061-067>069-081>083-085>088-221500-
SOUTHWEST INDIANA

CITY           SKY/WX    TMP DP  RH WIND       PRES   REMARKS
EVANSVILLE     CLOUDY    64  54  69 VRB7      30.10R
HUNTINGBURG +  CLOUDY    66  54  65 S14       30.13R
WASHINGTON +   CLOUDY    66  51  57 S15G23    30.10R

$$

INZ062-063-066-070>080-084-089>092-221500-
SOUTH CENTRAL AND SOUTHEAST INDIANA

CITY           SKY/WX    TMP DP  RH WIND       PRES   REMARKS
BEDFORD +      SUNNY     66  50  55 S10       30.12S
BLOOMINGTON    MOSUNNY   64  52  64 S10       30.12R
MADISON *+     SUNNY     64  46  52 SE9       30.20S
NORTH VERNON + SUNNY     64  48  55 S12G20    30.16S
SEYMOUR +      SUNNY     64  50  59 S9        30.15S

$$





USA.gov is the U.S. government's official web portal to all federal, state and local government web resources and services.